DateTimeUTC,F1_A11,F1_S11,BsB_S11,BsG_S11,BsR_S11,BbsB_S11,BbsG_S11,BbsR_S11,BaB_A11,BaG_A11,BaR_A11,Tu_S11,T_S11,Uu_S11,U_S11,P_S11,T1_A11
2021-06-23T18:00:00Z,00000200,20000000,,,,,,,0000.17,0000.20,0000.05,19.4,25.9,04.7,03.2,0676.6,31.2
2021-06-23T18:01:00Z,00000200,20000000,,,,,,,-000.07,-000.05,0000.20,19.4,25.9,04.8,03.2,0676.6,31.2
2021-06-23T18:02:00Z,00000200,20000000,,,,,,,0000.31,-000.05,-000.08,19.4,26.0,04.8,03.2,0676.6,31.2
2021-06-23T18:03:00Z,00000200,60000000,,,,,,,0000.02,0000.68,0000.27,19.4,26.0,04.8,03.2,0676.6,31.2
2021-06-23T18:04:00Z,00000200,40000000,0000.74,0000.46,0000.14,0000.30,0000.20,0000.32,0000.22,0000.07,0000.08,19.5,25.8,05.0,03.4,0677.6,31.2
2021-06-23T18:05:00Z,00000200,00000000,0001.24,0000.83,0000.24,0000.39,0000.16,0000.13,0000.56,0000.30,0000.19,19.5,25.8,04.9,03.4,0677.6,31.2
2021-06-23T18:06:00Z,00000200,00000000,0001.30,0000.59,0000.10,-000.05,0000.29,0000.38,0000.22,-000.17,0000.37,19.5,25.7,05.1,03.5,0677.6,31.2
2021-06-23T18:07:00Z,00000200,00000000,0000.83,0000.75,0000.55,-000.13,-000.01,0000.21,0000.30,0000.40,-000.07,19.5,25.7,05.0,03.4,0677.6,31.2
2021-06-23T18:08:00Z,00000200,00000000,0001.75,0000.48,0000.59,-000.04,0000.07,-000.08,0000.30,0000.12,0000.33,19.5,25.7,05.0,03.4,0677.6,31.2
2021-06-23T18:09:00Z,00000200,00000000,0001.12,0000.21,0000.58,-000.17,0000.41,0000.23,0000.17,0000.34,-000.14,19.5,25.7,04.9,03.3,0677.6,31.2
2021-06-23T18:10:00Z,00000200,00000000,0001.45,0000.60,0000.35,0000.85,0000.29,-000.08,0000.33,0000.23,0000.44,19.5,25.7,05.0,03.4,0677.6,31.2
2021-06-23T18:11:00Z,00000200,00000000,0000.56,0000.32,0000.31,0000.39,-000.12,0000.34,0000.42,0000.39,0000.40,19.5,25.7,05.1,03.5,0677.6,31.2
2021-06-23T18:12:00Z,00000200,00000000,0001.41,0000.53,0000.49,0000.34,0000.14,0000.22,0000.66,0000.47,0000.21,19.5,25.7,05.1,03.5,0677.6,31.2
2021-06-23T18:13:00Z,00000200,00000000,0001.15,0000.66,0000.00,0000.01,0000.10,-000.05,0000.03,0000.21,0000.06,19.5,25.7,05.2,03.6,0677.6,31.2
2021-06-23T18:14:00Z,00000200,00000000,0001.29,0000.59,0000.37,-000.28,0000.12,0000.39,0000.09,-000.03,-000.02,19.5,25.7,05.0,03.5,0677.6,31.2
2021-06-23T18:15:00Z,00000200,00000000,0001.45,0000.45,0000.19,-000.04,0000.46,0000.10,0000.32,0000.57,0000.50,19.5,25.7,05.2,03.6,0677.6,31.2
2021-06-23T18:16:00Z,00000200,00000000,0000.76,0000.75,0000.30,0000.61,0000.14,0000.18,0000.30,0000.31,0000.12,19.5,25.7,05.3,03.6,0677.6,31.2
2021-06-23T18:17:00Z,00000200,00000000,0000.53,0000.34,0000.13,0000.19,0000.25,0000.13,0000.62,0000.05,0000.37,19.5,25.7,05.3,03.6,0677.6,31.2
2021-06-23T18:18:00Z,00000200,00000000,0001.50,0000.44,0000.54,-000.24,0000.07,0000.02,0000.13,0000.19,0000.10,19.5,25.7,05.4,03.7,0677.6,31.2
2021-06-23T18:19:00Z,00000200,00000000,0001.37,0000.65,0000.34,-000.32,0000.23,0000.14,0000.30,0000.29,0000.09,19.5,25.7,05.3,03.6,0677.7,31.2
2021-06-23T18:20:00Z,00000200,00000000,0000.66,0000.40,0000.47,0000.33,0000.06,0000.55,0000.28,0000.51,0000.40,19.5,25.7,05.3,03.6,0677.7,31.2
2021-06-23T18:21:00Z,00000200,00000000,0001.58,0000.62,0000.32,0000.15,0000.21,0000.11,0000.17,-000.07,-000.16,19.5,25.7,05.3,03.7,0677.7,31.2
2021-06-23T18:22:00Z,00000200,00000000,0000.97,0000.45,0000.40,-000.13,0000.10,-000.11,0000.04,0000.54,0000.26,19.5,25.7,05.3,03.6,0677.7,31.2
2021-06-23T18:23:00Z,00000200,00000000,0000.78,0000.78,0000.31,0000.21,0000.08,0000.06,0000.59,0000.04,0000.24,19.5,25.7,05.4,03.7,0677.7,31.2
2021-06-23T18:24:00Z,00000200,00000000,0000.81,0000.48,0000.44,-000.05,0000.12,0000.30,0000.19,0000.77,0000.27,19.5,25.7,05.4,03.7,0677.7,31.2
2021-06-23T18:25:00Z,00000200,00000000,0001.13,0000.90,0000.18,-000.81,-000.00,0000.03,0000.37,-000.19,-000.07,19.5,25.7,05.4,03.7,0677.7,31.2
2021-06-23T18:26:00Z,00000200,00000000,0000.74,0000.53,0000.28,-000.14,0000.20,-000.04,0000.12,0000.25,0000.15,19.5,25.7,05.3,03.6,0677.7,31.2
2021-06-23T18:27:00Z,00000200,00000000,0000.82,0000.90,0000.48,0000.19,-000.02,0000.25,0000.38,0000.52,0000.30,19.5,25.7,05.3,03.7,0677.7,31.2
2021-06-23T18:28:00Z,00000200,00000000,0001.21,0000.73,0000.13,0000.49,0000.05,-000.06,0000.24,0000.05,0000.15,19.5,25.7,05.4,03.7,0677.7,31.2
2021-06-23T18:29:00Z,00000200,00000000,0000.51,0000.85,0000.41,-000.07,0000.20,0000.29,0000.14,0000.20,0000.20,19.5,25.7,05.3,03.6,0677.7,31.2
2021-06-23T18:30:00Z,00000200,00000000,0000.47,0001.01,0000.16,0000.12,0000.12,-000.15,0000.32,0000.25,0000.41,19.5,25.7,05.5,03.8,0677.7,31.2
2021-06-23T18:31:00Z,00000200,00000000,0001.07,0000.57,0000.26,0000.12,0000.04,0000.26,0000.48,-000.03,-000.10,19.5,25.7,05.5,03.8,0677.6,31.2
2021-06-23T18:32:00Z,00000200,00000000,0001.58,0000.63,0000.49,0000.18,-000.01,0000.13,-000.04,0000.54,0000.10,19.4,25.7,05.4,03.7,0677.6,31.2
2021-06-23T18:33:00Z,00000200,00000000,0001.21,0000.73,0000.03,0000.26,0000.34,-000.25,0000.44,0000.32,0000.54,19.5,25.7,05.4,03.7,0677.6,31.2
2021-06-23T18:34:00Z,00000200,00000000,0000.71,0000.47,0000.30,0000.04,0000.02,0000.51,0000.41,0000.18,0000.27,19.5,25.7,05.4,03.7,0677.6,31.2
2021-06-23T18:35:00Z,00000200,00000000,0000.66,0000.58,0000.12,0000.22,0000.16,0000.11,-000.09,-000.01,-000.46,19.5,25.7,05.5,03.8,0677.6,31.2
2021-06-23T18:36:00Z,00000200,00000000,0000.89,0000.60,0000.65,-000.24,0000.17,0000.45,0000.54,0000.32,0000.72,19.5,25.7,05.4,03.7,0677.6,31.2
2021-06-23T18:37:00Z,00000200,00000000,0000.65,0000.68,0000.11,0000.29,0000.13,0000.03,0000.42,0000.51,0000.17,19.5,25.6,05.5,03.8,0677.6,31.2
2021-06-23T18:38:00Z,00000200,00000000,0001.30,0000.44,0000.40,0000.03,-000.02,0000.27,0000.11,-000.18,-000.10,19.5,25.7,05.4,03.7,0677.6,31.2
2021-06-23T18:39:00Z,00000200,00000000,0000.93,0000.15,-000.10,-000.34,-000.03,0000.04,0000.01,0000.40,0000.19,19.5,25.7,05.5,03.8,0677.6,31.2
2021-06-23T18:40:00Z,00000200,00000000,0001.20,0000.89,0000.19,0000.03,0000.34,0000.17,0000.56,0000.13,0000.21,19.5,25.7,05.4,03.7,0677.6,31.2
2021-06-23T18:41:00Z,00000200,00000000,0000.69,0000.65,0000.45,0000.30,0000.16,0000.21,-000.09,0000.10,0000.16,19.4,25.7,05.4,03.7,0677.6,31.2
2021-06-23T18:42:00Z,00000200,00000000,0000.69,0000.47,0000.41,0000.06,0000.42,0000.00,0000.56,0000.03,0000.16,19.4,25.7,05.4,03.7,0677.6,31.2
2021-06-23T18:43:00Z,00000200,00000000,0001.36,0000.89,0000.19,0000.34,0000.14,0000.12,0000.18,0000.47,0000.01,19.4,25.6,05.3,03.6,0677.6,31.2
2021-06-23T18:44:00Z,00000200,00000000,0001.74,0000.76,0000.42,0000.16,0000.16,0000.05,0000.24,0000.36,0000.21,19.4,25.7,05.4,03.7,0677.6,31.2
2021-06-23T18:45:00Z,00000200,00000000,0000.63,0000.70,-000.02,-000.34,0000.27,0000.12,0000.19,0000.18,0000.35,19.4,25.6,05.5,03.7,0677.6,31.2
2021-06-23T18:46:00Z,00000200,00000000,0001.02,0000.77,0000.42,0000.32,0000.20,0000.26,0000.25,0000.14,-000.19,19.4,25.6,05.4,03.7,0677.6,31.2
2021-06-23T18:47:00Z,00000200,00000000,0001.11,0000.53,0000.09,0000.53,0000.09,0000.33,0000.30,0000.45,0000.27,19.4,25.7,05.5,03.7,0677.6,31.2
2021-06-23T18:48:00Z,00000200,00000000,-000.01,0000.50,0000.12,0000.30,0000.07,0000.18,0000.38,0000.10,0000.51,19.4,25.7,05.5,03.7,0677.5,31.2
2021-06-23T18:49:00Z,00000200,00000000,0000.03,0000.50,0000.12,0000.11,0000.13,0000.08,0000.33,0000.36,0000.02,19.4,25.7,05.4,03.7,0677.5,31.2
2021-06-23T18:50:00Z,00000200,00000000,0000.43,0000.62,0000.48,-000.20,0000.09,-000.05,0000.17,0000.03,0000.08,19.4,25.7,05.5,03.8,0677.5,31.2
2021-06-23T18:51:00Z,00000200,00000000,0001.60,0000.57,0000.86,-000.33,0000.12,0000.25,0000.15,0000.42,0000.47,19.4,25.7,05.5,03.8,0677.5,31.2
2021-06-23T18:52:00Z,00000200,00000000,0000.79,0000.83,0000.55,-000.03,0000.09,0000.17,0000.32,0000.04,0000.16,19.4,25.7,05.5,03.8,0677.5,31.2
2021-06-23T18:53:00Z,00000200,00000000,0001.25,0000.69,0000.31,0000.21,0000.07,0000.10,0000.14,0000.33,-000.04,19.4,25.7,05.6,03.8,0677.5,31.2
2021-06-23T18:54:00Z,00000200,00000000,0000.67,0000.41,0000.59,0000.33,-000.02,0000.36,0000.29,0000.31,-000.09,19.4,25.6,05.5,03.8,0677.5,31.2
2021-06-23T18:55:00Z,00000200,00000000,0000.56,0000.27,0000.16,-000.00,0000.13,0000.04,0000.15,-000.16,0000.37,19.4,25.6,05.6,03.9,0677.5,31.2
2021-06-23T18:56:00Z,00000200,00000000,0000.59,0000.44,0000.36,0000.51,0000.17,0000.22,0000.62,0000.31,0000.25,19.4,25.6,05.6,03.8,0677.5,31.2
2021-06-23T18:57:00Z,00000200,40000000,,,,,,,-000.16,-000.18,-000.21,19.5,25.7,05.7,03.9,0677.5,31.2
2021-06-23T18:58:00Z,00000200,60000000,,,,,,,-000.14,0000.41,0000.22,19.2,25.8,05.5,03.7,0676.5,31.2
2021-06-23T18:59:00Z,00000200,20000000,,,,,,,0000.03,-000.13,-000.27,19.2,25.9,05.6,03.7,0676.4,31.2
